Temp
-10 -11 -11 -11 -10 -10 -9 -10 -10 -9 -9 -8 -8 -8 -8 -8 -8 -8 -8 -8 -7 -8 -8 -8 -8 -9 -9 -10 -10 -11 -11 -11 -11 -11 -11 -11 -11 -10 -9 -9 -10 -10 -10
-10 -11 -11 -10 -11 -11 -10 -10 -10 -10 -9 -9 -8 -8 -8 -8 -8 -8 -8 -8 -8 -8 -8 -9 -9 -9 -9 -10 -11 -11 -12 -11 -12 -12 -12 -11 -10 -11 -9 -9 -10 -10 -11
-10 -11 -11 -10 -11 -11 -11 -10 -10 -10 -10 -9 -9 -9 -8 -8 -8 -8 -8 -8 -8 -8 -8 -9 -9 -9 -9 -10 -10 -11 -12 -12 -12 -12 -12 -12 -12 -11 -10 -11 -11 -11 -11
-11 -11 -11 -10 -11 -11 -11 -11 -11 -10 -10 -10 -9 -9 -9 -8 -8 -9 -9 -8 -8 -8 -9 -9 -9 -9 -9 -10 -10 -11 -12 -12 -12 -13 -12 -12 -12 -12 -11 -11 -12 -12 -11
-11 -11 -11 -11 -11 -11 -11 -11 -11 -11 -10 -10 -10 -10 -9 -9 -9 -9 -9 -9 -8 -9 -9 -9 -9 -9 -9 -10 -11 -12 -12 -12 -12 -12 -11 -12 -11 -11 -12 -12 -12 -12 -12
-11 -11 -11 -11 -11 -11 -11 -11 -11 -11 -10 -10 -10 -10 -10 -10 -9 -9 -9 -9 -9 -9 -9 -9 -10 -9 -9 -10 -11 -12 -12 -12 -12 -12 -12 -11 -11 -11 -12 -12 -12 -12 -12
-11 -12 -12 -11 -11 -11 -11 -11 -11 -11 -11 -10 -10 -10 -10 -10 -10 -9 -9 -9 -9 -9 -9 -9 -10 -10 -10 -10 -10 -10 -11 -12 -12 -12 -12 -13 -12 -12 -12 -12 -12 -12 -12
-11 -11 -11 -12 -11 -11 -11 -11 -11 -11 -11 -10 -10 -10 -10 -10 -10 -9 -9 -9 -9 -9 -9 -9 -10 -10 -10 -10 -10 -11 -11 -11 -12 -12 -12 -12 -13 -13 -13 -13 -12 -12 -12
-11 -11 -11 -11 -11 -11 -11 -12 -12 -11 -11 -11 -10 -10 -10 -10 -10 -9 -9 -9 -9 -9 -9 -9 -9 -10 -10 -10 -10 -11 -11 -11 -12 -11 -12 -12 -12 -13 -13 -12 -12 -12 -12
-11 -11 -11 -11 -11 -12 -11 -11 -11 -11 -11 -11 -11 -10 -11 -10 -10 -10 -9 -10 -9 -9 -9 -9 -10 -10 -10 -10 -10 -11 -11 -11 -11 -12 -12 -12 -12 -12 -12 -12 -12 -12 -12
-11 -11 -11 -12 -12 -12 -12 -11 -11 -11 -11 -11 -11 -11 -11 -11 -10 -10 -10 -10 -9 -9 -9 -10 -10 -10 -10 -10 -10 -11 -11 -11 -12 -12 -12 -12 -13 -13 -12 -12 -12 -12 -12
-12 -12 -12 -12 -12 -12 -12 -12 -12 -12 -12 -11 -11 -11 -11 -11 -11 -10 -10 -10 -10 -9 -9 -10 -10 -10 -10 -10 -10 -10 -11 -11 -11 -12 -12 -13 -12 -13 -13 -12 -12 -13 -13
-13 -13 -12 -12 -12 -13 -12 -12 -12 -12 -12 -12 -11 -11 -11 -11 -11 -11 -10 -10 -10 -10 -10 -10 -10 -11 -11 -10 -10 -11 -11 -11 -11 -12 -12 -12 -13 -13 -12 -12 -13 -12 -12
-13 -13 -13 -13 -13 -13 -13 -12 -12 -13 -12 -12 -11 -11 -11 -11 -11 -11 -11 -11 -10 -10 -10 -10 -10 -10 -11 -11 -10 -11 -11 -12 -11 -12 -12 -12 -12 -13 -13 -12 -13 -13 -13
-12 -13 -14 -14 -13 -13 -13 -14 -13 -13 -13 -12 -12 -12 -11 -11 -12 -11 -11 -11 -11 -10 -10 -10 -10 -10 -11 -11 -11 -11 -11 -11 -12 -12 -12 -12 -12 -12 -13 -13 -13 -13 -13
-12 -13 -14 -14 -15 -14 -13 -13 -14 -13 -13 -13 -12 -12 -12 -11 -11 -12 -12 -11 -11 -11 -10 -10 -10 -10 -11 -11 -11 -11 -11 -11 -12 -12 -12 -12 -12 -12 -12 -13 -13 -13 -13
-12 -12 -13 -13 -14 -15 -15 -14 -14 -14 -13 -13 -13 -13 -12 -12 -11 -12 -12 -12 -12 -11 -11 -11 -11 -11 -11 -11 -11 -11 -11 -11 -12 -12 -12 -12 -12 -12 -12 -13 -12 -12 -13
-14 -14 -13 -13 -13 -14 -15 -15 -14 -14 -14 -14 -13 -13 -13 -12 -12 -12 -12 -12 -12 -12 -12 -11 -11 -11 -11 -11 -11 -11 -12 -11 -12 -12 -12 -12 -12 -12 -12 -12 -12 -12 -12
-14 -14 -14 -14 -13 -14 -15 -15 -15 -15 -14 -14 -13 -13 -14 -13 -12 -12 -12 -12 -12 -12 -12 -12 -12 -12 -12 -11 -11 -11 -12 -11 -11 -12 -12 -12 -12 -12 -12 -12 -12 -12 -12
-13 -14 -14 -15 -15 -14 -14 -15 -15 -15 -15 -14 -13 -14 -14 -13 -13 -13 -13 -13 -13 -12 -12 -12 -12 -12 -12 -12 -12 -12 -11 -12 -11 -12 -12 -12 -12 -12 -12 -12 -12 -12 -12
-13 -13 -14 -14 -15 -15 -14 -14 -15 -15 -15 -15 -14 -14 -14 -14 -13 -13 -13 -13 -13 -13 -12 -12 -12 -12 -12 -12 -12 -12 -12 -12 -12 -11 -11 -12 -12 -12 -12 -12 -12 -12 -12
-14 -15 -14 -15 -16 -16 -15 -15 -15 -16 -15 -15 -15 -15 -15 -14 -13 -13 -13 -13 -13 -13 -13 -13 -13 -12 -13 -12 -12 -12 -13 -12 -12 -12 -12 -12 -12 -12 -12 -12 -12 -13 -13
-18 -19 -19 -18 -18 -16 -17 -15 -15 -16 -15 -14 -14 -15 -14 -14 -14 -14 -13 -13 -13 -13 -13 -13 -13 -13 -13 -13 -13 -13 -13 -13 -13 -12 -12 -12 -12 -12 -12 -12 -12 -12 -13
-18 -18 -19 -18 -19 -18 -18 -17 -15 -16 -15 -14 -14 -15 -15 -15 -14 -14 -14 -13 -13 -13 -14 -14 -13 -13 -13 -13 -13 -13 -13 -13 -13 -13 -12 -12 -12 -12 -13 -13 -13 -13 -13
-18 -18 -18 -19 -19 -19 -19 -18 -16 -16 -14 -14 -15 -15 -15 -15 -15 -15 -14 -14 -14 -14 -13 -14 -13 -13 -14 -13 -13 -13 -13 -13 -13 -13 -12 -12 -12 -12 -12 -13 -13 -13 -13
-18 -18 -19 -19 -19 -19 -19 -18 -17 -16 -15 -15 -14 -15 -15 -15 -15 -16 -15 -14 -14 -14 -14 -14 -14 -13 -14 -14 -13 -13 -13 -13 -13 -13 -13 -13 -12 -12 -12 -12 -13 -13 -14
Height
5860 5859 5858 5856 5856 5855 5855 5854 5852 5851 5849 5847 5845 5844 5844 5845 5845 5846 5845 5844 5843 5842 5840 5838 5837 5834 5832 5830 5829 5829 5830 5831 5832 5833 5834 5836 5835 5830 5832 5832 5828 5831 5837
5857 5857 5855 5854 5853 5852 5852 5852 5851 5849 5846 5845 5844 5843 5842 5842 5843 5843 5843 5842 5841 5840 5837 5835 5834 5831 5829 5826 5825 5826 5828 5829 5829 5829 5832 5832 5831 5833 5829 5828 5825 5832 5835
5853 5853 5852 5852 5851 5850 5849 5849 5849 5846 5844 5842 5842 5842 5841 5840 5840 5840 5840 5839 5839 5838 5835 5833 5831 5828 5827 5824 5823 5822 5823 5825 5826 5827 5830 5831 5833 5829 5830 5830 5828 5831 5834
5849 5849 5848 5849 5847 5847 5847 5847 5846 5844 5842 5839 5839 5840 5839 5838 5838 5838 5838 5838 5837 5835 5833 5831 5829 5827 5825 5822 5821 5820 5819 5822 5823 5825 5827 5829 5830 5828 5829 5829 5828 5831 5834
5845 5845 5845 5845 5844 5844 5845 5844 5843 5841 5840 5838 5837 5837 5837 5836 5836 5836 5836 5835 5834 5833 5831 5829 5827 5825 5823 5821 5819 5818 5817 5817 5823 5825 5825 5827 5828 5828 5827 5827 5828 5830 5832
5841 5842 5841 5841 5841 5840 5841 5841 5840 5839 5837 5836 5835 5834 5835 5834 5834 5834 5834 5833 5832 5831 5828 5827 5825 5822 5820 5819 5817 5815 5815 5817 5821 5820 5824 5825 5827 5825 5827 5829 5829 5830 5832
5836 5836 5836 5837 5836 5837 5838 5839 5838 5837 5835 5834 5832 5832 5832 5832 5832 5831 5832 5831 5829 5829 5827 5825 5822 5820 5819 5817 5816 5814 5815 5817 5821 5822 5824 5822 5824 5825 5825 5827 5828 5829 5831
5832 5832 5832 5833 5833 5833 5834 5835 5836 5835 5832 5831 5830 5829 5829 5829 5829 5830 5829 5829 5828 5826 5824 5822 5820 5819 5817 5816 5815 5817 5815 5817 5819 5822 5821 5822 5823 5825 5826 5826 5827 5829 5831
5827 5827 5827 5828 5828 5828 5829 5830 5830 5831 5830 5828 5827 5826 5825 5826 5827 5827 5827 5828 5826 5824 5822 5820 5819 5817 5815 5814 5814 5814 5813 5814 5816 5817 5818 5819 5820 5823 5824 5826 5827 5828 5830
5821 5822 5822 5822 5822 5822 5823 5825 5825 5826 5826 5826 5824 5822 5822 5823 5823 5824 5825 5825 5823 5821 5820 5818 5817 5815 5813 5813 5813 5813 5813 5813 5815 5815 5816 5817 5818 5822 5824 5824 5825 5827 5828
5814 5815 5816 5817 5817 5817 5817 5819 5820 5820 5821 5822 5822 5821 5819 5819 5820 5821 5822 5822 5821 5819 5817 5816 5815 5814 5811 5812 5812 5812 5811 5812 5812 5812 5814 5814 5816 5819 5821 5823 5823 5824 5825
5808 5809 5809 5810 5810 5811 5811 5812 5814 5815 5815 5817 5818 5818 5818 5816 5816 5817 5818 5818 5817 5817 5815 5813 5811 5812 5811 5810 5810 5810 5810 5809 5808 5808 5810 5812 5814 5816 5819 5820 5821 5822 5823
5800 5801 5802 5803 5804 5804 5806 5806 5807 5809 5811 5811 5812 5813 5813 5813 5812 5813 5814 5814 5814 5814 5812 5811 5809 5810 5809 5809 5808 5808 5808 5807 5806 5806 5807 5809 5811 5813 5816 5817 5819 5820 5821
5791 5793 5793 5794 5796 5796 5797 5799 5800 5802 5805 5807 5806 5808 5808 5808 5809 5809 5809 5810 5810 5810 5809 5808 5808 5807 5807 5807 5805 5805 5806 5806 5805 5804 5805 5808 5810 5812 5813 5815 5816 5817 5818
5782 5782 5784 5785 5786 5787 5789 5790 5793 5795 5797 5800 5801 5802 5804 5805 5805 5805 5805 5806 5806 5806 5806 5805 5805 5804 5805 5804 5804 5804 5804 5804 5804 5803 5803 5805 5807 5809 5811 5812 5813 5814 5815
5772 5773 5774 5776 5778 5777 5779 5781 5783 5787 5790 5793 5795 5797 5798 5799 5800 5800 5800 5801 5801 5802 5802 5802 5802 5802 5803 5801 5801 5802 5801 5802 5802 5801 5802 5803 5805 5806 5807 5808 5809 5811 5812
5758 5758 5761 5763 5765 5767 5769 5770 5773 5776 5781 5786 5788 5790 5792 5793 5795 5795 5796 5796 5797 5798 5798 5798 5799 5799 5800 5798 5799 5799 5798 5799 5799 5799 5799 5799 5800 5802 5803 5805 5806 5807 5808
5746 5746 5745 5749 5751 5755 5757 5759 5763 5765 5771 5776 5780 5782 5784 5786 5788 5790 5790 5791 5793 5794 5794 5794 5795 5795 5796 5796 5796 5795 5794 5795 5795 5796 5796 5797 5798 5799 5801 5801 5802 5803 5805
5732 5732 5733 5732 5737 5740 5744 5748 5751 5755 5758 5764 5770 5773 5776 5778 5780 5783 5784 5786 5787 5788 5789 5790 5791 5791 5791 5792 5792 5792 5791 5792 5791 5792 5793 5794 5796 5796 5797 5797 5798 5798 5799
5710 5711 5714 5717 5720 5725 5729 5733 5738 5743 5745 5752 5759 5763 5767 5769 5772 5775 5778 5780 5782 5783 5784 5785 5786 5787 5788 5788 5789 5789 5788 5788 5788 5788 5789 5790 5790 5791 5792 5792 5793 5794 5793
5680 5681 5688 5689 5693 5698 5706 5713 5721 5729 5735 5741 5750 5754 5757 5761 5763 5766 5771 5774 5776 5777 5778 5779 5781 5782 5783 5784 5784 5785 5785 5784 5784 5783 5784 5785 5786 5786 5786 5787 5788 5786 5788
5644 5645 5647 5655 5662 5667 5677 5691 5703 5715 5723 5731 5737 5743 5748 5753 5756 5758 5764 5768 5769 5770 5772 5774 5775 5776 5778 5780 5781 5781 5781 5781 5780 5780 5780 5780 5780 5781 5782 5783 5784 5784 5782
5611 5613 5615 5617 5626 5634 5646 5663 5679 5693 5703 5714 5723 5732 5738 5744 5747 5749 5755 5760 5763 5763 5766 5767 5770 5771 5773 5775 5776 5777 5777 5777 5777 5777 5776 5776 5775 5776 5777 5778 5778 5777 5776
5596 5592 5592 5592 5597 5604 5617 5635 5654 5672 5685 5698 5711 5722 5729 5733 5737 5742 5746 5751 5755 5757 5759 5761 5763 5765 5768 5769 5771 5772 5773 5773 5773 5773 5772 5772 5771 5771 5771 5772 5773 5773 5772
5580 5573 5568 5568 5571 5579 5594 5614 5634 5655 5668 5666 5692 5708 5716 5722 5728 5733 5736 5741 5746 5750 5752 5755 5757 5759 5761 5764 5765 5767 5768 5768 5769 5768 5768 5768 5767 5766 5766 5766 5767 5768 5768
5559 5548 5540 5537 5541 5554 5575 5600 5622 5643 5659 5666 5667 5695 5704 5712 5718 5724 5726 5732 5737 5742 5745 5747 5749 5752 5755 5757 5759 5760 5762 5763 5763 5763 5763 5762 5762 5762 5762 5761 5760 5760 5761
Wind_Speed
15 13 19 22 24 26 24 19 19 17 16 15 12 11 9 11 12 14 13 12 13 15 16 15 14 12 14 15 16 15 18 19 21 24 23 22 23 8 21 15 18 12 8
16 16 21 22 24 25 26 20 23 20 17 15 14 13 11 12 13 13 12 11 13 14 14 14 13 13 14 15 16 15 19 19 23 24 21 21 20 19 18 16 17 9 9
23 21 25 27 27 26 21 22 22 22 19 14 14 14 12 12 12 10 11 12 13 13 14 13 12 11 12 14 12 13 21 22 23 22 20 19 19 7 6 8 15 11 4
25 24 25 25 28 27 25 28 25 21 20 15 13 14 12 11 10 9 11 13 13 12 13 12 12 12 14 15 13 12 15 20 24 18 19 17 14 14 8 4 8 5 1
28 27 27 26 28 29 28 30 26 19 19 16 11 10 9 7 7 7 10 12 13 12 12 12 11 11 14 14 12 12 14 21 23 15 15 15 12 11 7 5 2 2 1
27 29 31 29 29 31 29 28 25 20 18 15 11 8 7 6 7 9 10 11 12 12 11 12 12 12 11 12 13 8 7 20 24 9 17 9 11 8 7 7 5 2 3
31 33 33 34 34 34 34 29 25 23 18 15 12 8 6 6 7 9 10 11 10 12 11 11 13 11 11 12 12 3 3 16 20 19 19 17 8 11 10 8 6 4 4
32 35 38 37 37 36 34 34 31 26 18 17 13 10 6 5 6 8 10 10 11 12 10 10 11 9 6 8 7 9 12 12 16 19 17 18 14 13 10 9 7 6 7
34 36 38 39 38 35 33 31 33 28 24 17 14 10 7 7 7 8 9 10 11 12 11 10 11 8 6 6 7 7 14 14 19 17 21 19 16 13 12 10 8 8 9
36 36 37 38 38 38 35 31 27 28 26 21 16 11 8 9 9 9 9 10 11 12 10 9 9 8 6 7 9 8 12 17 18 23 20 19 16 13 13 12 10 10 11
38 38 38 39 38 40 38 35 30 26 25 26 21 16 11 10 10 12 11 10 11 12 12 8 6 9 6 7 8 8 10 13 13 18 21 20 18 15 14 14 12 12 13
42 41 41 40 42 40 40 38 33 28 23 27 27 22 17 13 12 12 13 12 12 11 11 10 6 10 7 11 10 13 12 12 11 12 15 20 20 18 17 15 14 14 14
44 46 44 44 43 42 39 40 36 30 26 22 26 27 20 18 15 14 14 14 12 12 10 9 7 10 12 12 11 9 13 12 9 11 15 17 18 18 17 16 15 14 16
46 46 48 47 46 45 43 42 39 35 29 25 27 30 24 21 18 16 15 15 13 14 11 9 10 11 10 11 9 8 12 14 11 12 14 13 15 15 15 16 17 17 17
47 49 50 51 50 50 48 46 44 40 33 29 29 30 29 24 21 18 17 17 16 15 12 10 10 11 11 10 10 9 11 14 14 12 11 11 12 15 16 19 19 19 18
46 49 53 55 54 54 52 53 46 46 41 34 29 32 31 29 26 22 19 18 16 17 14 12 11 10 13 10 11 10 9 10 17 17 14 12 16 13 13 18 20 19 18
51 52 53 56 59 58 58 56 55 48 48 42 38 34 33 32 31 26 22 20 18 18 17 14 13 11 14 11 12 10 9 10 13 18 20 16 12 17 15 18 17 19 20
51 56 59 58 60 62 62 60 57 56 56 49 43 34 34 36 34 31 26 22 20 18 18 17 15 13 13 13 12 12 8 10 11 20 18 21 17 14 18 26 18 18 19
58 56 61 66 64 65 65 66 64 61 58 57 47 42 38 39 37 35 31 25 22 20 19 19 17 15 13 13 12 11 11 10 11 13 21 22 25 23 22 22 23 25 27
72 72 69 63 70 69 70 68 68 65 64 59 53 48 41 43 40 37 35 29 26 22 21 20 19 17 15 14 13 12 10 10 11 13 17 21 25 28 31 26 30 31 26
89 90 81 80 75 71 75 75 72 68 66 62 53 46 42 41 43 39 38 33 29 25 24 20 21 19 17 16 14 14 12 10 10 12 17 18 20 28 33 29 27 25 25
95 83 87 75 78 78 78 79 77 71 66 60 57 51 48 40 41 42 38 36 34 29 26 23 22 21 20 18 17 15 15 14 14 10 12 16 20 20 25 30 27 31 38
55 54 54 64 80 88 85 83 81 75 70 69 62 55 50 43 43 43 38 38 36 33 29 26 24 22 23 20 21 18 17 18 17 17 15 15 17 20 22 25 30 31 33
46 56 59 60 64 95 87 83 84 81 78 66 65 58 52 46 46 42 37 41 39 37 32 29 28 26 21 22 22 22 19 20 20 19 18 17 16 17 23 27 28 30 30
48 51 57 63 69 83 88 83 82 78 74 69 66 55 51 51 46 41 39 42 41 37 35 31 30 28 25 24 24 24 22 21 22 21 20 19 19 18 19 22 28 29 30
54 50 50 52 60 77 83 80 77 75 73 72 54 57 54 48 46 42 41 42 44 39 35 32 33 32 29 27 25 25 25 25 23 22 23 23 22 20 21 22 23 27 30
Wind_Direction
299 291 296 303 301 296 305 324 322 318 304 275 268 271 283 296 306 319 333 335 336 321 319 320 312 309 295 282 265 248 222 224 228 238 239 250 253 236 213 217 196 223 231
287 284 290 295 304 307 301 327 325 319 315 294 277 277 282 289 302 317 330 333 330 321 321 321 311 303 304 296 267 252 221 229 229 237 245 246 267 266 191 177 171 189 179
280 275 287 303 303 314 320 326 322 318 318 305 285 282 280 287 299 318 328 328 328 321 323 318 307 306 304 296 280 242 221 226 232 240 243 249 262 93 132 131 128 135 109
286 283 284 300 304 309 322 325 322 322 316 315 294 288 285 290 294 323 321 325 322 322 322 312 303 299 304 297 292 260 231 227 227 239 256 254 261 275 273 9 56 70 36
283 290 290 297 301 307 312 322 319 321 314 315 307 297 292 292 299 311 313 320 320 322 320 310 301 296 299 296 296 267 261 227 219 229 251 257 260 256 302 326 22 61 196
281 284 288 298 302 302 307 314 316 317 313 307 306 302 302 303 298 303 311 317 319 324 319 306 298 294 297 296 307 283 251 198 206 229 228 225 199 254 279 286 299 266 229
286 285 287 294 301 304 309 310 312 311 307 300 295 291 296 305 302 301 310 315 319 315 312 306 297 291 301 300 311 267 239 201 220 231 237 258 251 255 268 271 287 284 222
278 280 284 288 293 298 301 304 309 304 299 295 284 281 278 280 283 289 306 309 316 316 311 305 290 292 302 286 297 205 210 211 229 230 237 243 251 256 259 269 266 247 222
272 273 279 285 289 293 298 301 303 297 294 286 278 274 266 257 258 271 293 298 310 313 311 310 300 289 279 272 283 245 223 235 234 227 236 244 250 263 262 255 254 237 227
269 271 275 280 286 290 291 293 294 300 284 283 272 263 260 252 246 253 273 291 302 310 308 309 302 291 278 267 274 257 235 222 224 230 235 244 239 247 244 240 237 229 225
262 266 268 272 276 281 285 287 289 290 279 280 272 263 249 245 245 243 253 273 289 302 307 299 271 277 269 269 285 265 260 238 235 238 240 234 234 233 229 230 223 223 224
265 264 264 266 269 272 278 282 284 286 278 271 275 263 256 242 240 240 242 251 272 287 301 294 275 262 264 265 275 279 272 243 244 239 246 231 232 224 223 226 225 221 228
263 267 266 266 266 268 269 273 278 280 281 272 268 262 253 250 242 240 243 243 255 272 289 288 277 262 260 251 256 277 274 248 237 247 233 230 232 217 223 222 227 230 230
259 259 263 264 265 264 265 266 269 273 273 267 259 259 250 249 245 243 245 242 246 261 278 283 277 276 268 261 265 273 277 253 245 241 229 230 229 223 222 226 229 231 230
261 260 259 260 261 262 263 262 265 266 264 265 254 250 253 249 244 241 242 245 242 249 262 273 276 281 272 267 264 272 270 259 245 232 229 230 225 227 231 238 239 241 240
261 257 258 258 258 261 260 262 256 263 260 261 258 258 252 249 244 241 239 244 242 245 248 258 267 274 268 262 271 258 261 263 251 242 225 243 239 235 238 241 242 246 249
266 263 255 255 254 254 256 258 258 251 260 260 258 262 253 246 243 238 239 241 243 244 247 250 258 262 262 262 265 256 260 256 256 237 237 235 245 230 236 234 242 251 258
264 262 262 255 252 251 248 250 255 255 260 258 261 254 253 245 243 240 237 240 242 245 245 249 251 255 259 259 263 263 255 255 267 251 247 245 238 231 244 253 245 239 265
272 266 257 258 255 249 247 246 251 250 257 259 254 250 254 243 239 242 238 238 241 242 245 245 251 250 250 257 263 263 258 248 254 260 259 256 251 240 237 257 260 262 263
274 274 270 258 255 253 248 245 244 248 251 255 256 252 252 241 237 239 240 239 241 242 244 246 249 248 244 245 257 262 262 258 256 258 260 266 265 251 245 251 258 267 254
277 274 268 262 256 247 247 244 241 243 247 252 255 250 244 241 239 238 239 240 242 244 244 246 248 251 249 248 250 262 268 266 262 264 264 262 270 257 250 253 268 232 258
281 274 270 255 246 241 236 238 238 237 240 243 244 251 240 249 239 237 239 240 243 244 245 247 251 250 253 250 249 253 267 270 270 275 276 277 277 264 261 249 258 262 256
274 259 251 251 230 228 231 228 231 228 232 230 240 247 241 252 235 234 235 239 242 243 246 246 250 253 254 254 252 252 256 264 271 274 277 280 279 270 269 265 254 269 241
286 279 263 253 243 226 225 221 224 228 230 228 234 240 249 243 234 236 235 240 241 242 242 247 248 254 255 257 253 254 255 262 267 273 278 282 282 278 268 263 262 261 273
294 284 265 255 242 228 223 216 218 222 227 232 230 225 242 236 231 236 235 240 242 242 241 241 246 252 254 253 255 253 254 260 268 271 276 282 285 284 282 273 268 270 270
298 288 268 259 240 220 220 213 213 218 223 230 226 235 238 232 226 232 237 241 247 242 240 240 245 248 253 255 255 254 251 254 264 273 278 281 283 284 282 280 273 270 271